Wind_Speed
36 37 36 34 34 34 34 34 36 37 38 37 36 34 34 34 31 28 24 20 16 13 14 17 17 18 20
40 39 40 40 40 39 40 40 39 41 40 41 40 40 38 37 36 36 36 33 28 24 20 18 19 22 24
43 43 43 44 43 43 43 43 45 46 47 47 46 45 45 44 43 39 38 38 38 34 34 30 27 26 25
43 44 45 46 46 46 46 47 48 48 49 50 49 49 49 49 49 48 47 47 46 42 41 39 37 37 34
42 42 43 44 43 43 44 46 46 47 48 49 49 50 51 51 52 52 51 51 51 49 48 49 47 45 43
40 40 40 42 45 47 48 49 49 51 52 51 52 53 53 54 54 53 54 54 53 53 52 53 54 52 51
47 49 51 54 54 54 55 55 56 55 55 56 57 58 59 60 59 59 59 58 57 56 55 55 56 56 55
58 59 58 58 58 58 58 59 60 61 61 61 63 63 64 63 63 63 63 62 61 59 58 57 57 57 57
58 59 60 60 60 61 62 63 64 65 68 70 71 71 70 67 66 64 63 62 62 62 60 58 58 58 58
58 60 60 61 64 65 67 67 69 71 71 73 72 71 69 65 63 62 61 61 61 60 61 61 60 59 60
60 59 61 63 65 66 68 70 72 70 69 65 63 62 60 58 58 59 58 58 57 57 56 56 57 57 58
61 61 63 64 65 67 68 68 66 64 62 60 58 59 58 56 54 53 52 52 54 52 51 54 55 51 48
60 60 63 64 64 65 63 60 60 60 60 60 58 58 56 52 51 47 48 51 48 50 51 46 46 46 45
58 59 61 61 60 57 57 57 57 56 56 55 53 52 49 44 40 40 45 45 44 43 44 43 42 42 45
58 57 57 55 54 53 53 51 48 46 46 46 45 42 38 38 39 41 42 41 40 39 42 40 41 40 37
55 52 50 49 48 46 44 39 37 39 40 39 37 37 36 37 37 38 39 37 35 35 35 36 35 34 31
47 45 44 41 39 35 33 31 31 31 31 34 37 35 33 34 34 34 34 32 31 33 33 30 30 33 31
Wind_Direction
279 281 281 280 280 281 280 281 283 286 289 291 295 298 302 306 309 311 311 310 309 305 300 292 281 271 267
275 276 276 277 278 278 279 280 280 281 282 285 287 289 291 292 296 301 303 301 300 295 289 284 281 277 273
277 279 281 281 283 283 282 281 282 282 284 285 286 287 287 286 287 286 286 290 292 296 293 285 278 276 273
279 280 282 282 283 283 283 283 282 283 284 284 285 285 285 285 284 283 281 279 281 279 280 281 279 277 276
279 279 279 281 282 284 286 286 286 286 287 288 288 287 286 284 283 282 281 279 278 276 273 273 273 274 271
282 281 282 284 286 288 288 288 288 288 287 288 287 286 285 282 280 279 278 277 275 273 271 269 270 269 269
283 284 286 288 287 286 284 284 283 283 283 283 282 282 282 280 279 278 276 275 273 271 270 268 267 267 267
280 282 282 281 282 283 284 284 285 286 288 289 288 286 284 283 282 280 277 275 273 271 270 269 268 268 267
280 282 283 284 284 286 288 289 291 294 296 292 293 291 290 288 285 282 278 276 273 271 270 269 268 266 265
283 283 284 286 287 289 291 293 296 297 296 295 293 290 287 284 280 277 275 273 271 269 268 266 265 266 265
285 285 286 287 289 291 293 295 296 296 294 290 287 283 280 277 275 273 271 269 269 270 267 266 267 264 264
283 283 285 287 290 292 295 295 293 290 288 285 284 282 281 279 277 275 271 268 266 270 269 269 267 265 266
281 283 285 289 291 292 291 287 287 287 286 284 283 281 280 278 275 273 271 267 270 268 270 275 269 270 263
281 285 289 289 288 286 287 288 288 287 285 285 283 281 278 273 271 273 270 270 270 269 267 268 268 268 267
285 287 286 284 285 286 287 288 287 286 287 287 283 278 270 273 274 269 268 270 272 270 267 266 268 267 267
286 283 282 282 284 286 287 288 287 286 282 281 278 274 273 272 280 272 266 267 269 269 266 265 264 265 262
280 280 279 281 282 285 284 282 289 291 291 285 279 273 271 274 281 273 262 266 268 261 263 262 259 259 262
Height
5673 5672 5670 5671 5670 5668 5667 5667 5665 5663 5661 5660 5658 5658 5655 5653 5652 5651 5650 5649 5648 5646 5646 5646 5646 5646 5647
5663 5662 5660 5660 5659 5659 5658 5656 5656 5653 5652 5651 5650 5649 5648 5648 5647 5645 5643 5643 5642 5642 5641 5641 5640 5640 5640
5652 5651 5650 5648 5648 5648 5647 5647 5645 5644 5643 5642 5641 5640 5639 5637 5637 5637 5635 5634 5634 5633 5633 5633 5632 5631 5631
5643 5641 5639 5637 5636 5636 5635 5634 5633 5632 5630 5629 5628 5628 5627 5626 5625 5624 5624 5624 5623 5623 5622 5621 5621 5621 5620
5631 5629 5627 5626 5625 5623 5622 5621 5620 5618 5618 5616 5615 5614 5612 5612 5611 5610 5610 5610 5609 5609 5609 5608 5608 5608 5607
5619 5617 5616 5615 5614 5612 5610 5609 5608 5606 5604 5604 5601 5600 5598 5596 5595 5594 5594 5593 5593 5593 5593 5594 5593 5593 5594
5606 5604 5604 5602 5600 5598 5596 5594 5592 5591 5589 5588 5585 5584 5582 5580 5578 5577 5576 5575 5575 5576 5576 5576 5577 5577 5577
5591 5590 5588 5585 5584 5581 5579 5577 5575 5573 5571 5571 5568 5565 5564 5562 5561 5559 5558 5557 5557 5557 5557 5558 5558 5559 5560
5574 5572 5570 5568 5566 5564 5561 5560 5557 5556 5552 5551 5547 5545 5544 5543 5541 5540 5539 5539 5538 5539 5539 5539 5540 5541 5541
5558 5555 5554 5552 5548 5545 5543 5542 5539 5536 5533 5530 5527 5524 5525 5521 5519 5517 5517 5518 5518 5518 5519 5520 5521 5522 5522
5541 5538 5536 5534 5531 5529 5526 5523 5519 5515 5512 5509 5507 5503 5502 5502 5499 5498 5498 5498 5499 5500 5500 5500 5501 5502 5502
5524 5522 5519 5517 5515 5511 5507 5503 5499 5495 5492 5490 5488 5485 5484 5483 5483 5480 5480 5481 5483 5483 5482 5483 5483 5484 5485
5505 5503 5500 5498 5494 5491 5488 5483 5480 5477 5474 5471 5469 5466 5465 5465 5465 5464 5464 5465 5467 5467 5468 5468 5468 5470 5470
5488 5485 5482 5478 5476 5471 5468 5465 5463 5459 5456 5454 5451 5449 5448 5448 5449 5449 5449 5451 5452 5452 5454 5454 5454 5455 5456
5469 5467 5463 5460 5456 5454 5452 5449 5446 5443 5441 5438 5436 5436 5437 5437 5437 5436 5437 5438 5438 5439 5440 5440 5440 5442 5444
5450 5448 5446 5443 5441 5439 5437 5435 5433 5431 5429 5427 5425 5425 5426 5426 5425 5424 5425 5426 5427 5429 5429 5431 5431 5431 5433
5435 5433 5431 5429 5427 5427 5426 5424 5423 5421 5419 5417 5416 5415 5415 5415 5415 5413 5414 5416 5418 5419 5420 5421 5422 5422 5424